Aérodrome :
LOGIN :

S'inscrire | Disclaimer

   EN    FR    IT 

 










Légende :    VFR   VFR Marginal   IFR   IFR Intensif   IFR Très Intensif
Visi : 
Plafond : 
>= 8 km
>= 3000ft
5 à 8 km
1000 à 3000 ft
1500m à 5 km
500 à 1000 ft
800 à 1500m
200 à 500 ft
< 800m
< 200 ft
Symboles :   Orages  Brouillard  Fortes neiges  Fortes précipitations  Vent > 20 kt
SIGMETs :   Divers  Orages  Givrage  Turbulence  Onde Orograph.  Cendres Volcan.






- Altitude de l'aérodrome : 1966 ft
- Code IATA : SGE


EDGS - Siegerland

DERNIER METAR :
  • 221050Z 06008KT 030V090 9999 BKN013 15/11 Q1015

METARs EXPIRÉS :
  • 221020Z 07009KT 020V100 9999 BKN011 15/11 Q1015
  • 220950Z 07008KT 020V100 9999 BKN011 16/12 Q1015
  • 220920Z 06007KT 020V090 9999 OVC009 14/11 Q1015
  • 220850Z 05008KT 9999 OVC007 13/10 Q1014
  • 220820Z 05010KT 9999 SCT003 OVC006 11/10 Q1014

TAF TAF EDGS
Valide du 22 à 09h jusqu'au 22 à 18h UTC


220800Z 2209/2218 06008KT 9999 FEW006 SCT012
TEMPO 2209/2212 BKN012



MET'MAP, la Météo Aéronautique d'un coup d'oeil ! - Copyright ORBIFLY Décembre 2007 - Disclaimer

ORBIFLY MET'MAP TEAM :

Programmation & Développement : Alexandra Zaïnal
Sur une idée originale de : Baudouin d'Aumeries
Assistance à la programmation : Marc-Olivier Méhu
Soutien technique & logistique : Manuel Goepfert

Contact : metmap@orbifly.com




SOURCES & CREDITS :

   NOAA